�N����,����,�~����,�C��,���x,�C��,����,���ϕ���,�ő�u�ԕ���,�ő厞����,���˗�,�I�_���x,�n�����x,�ő啗���N��,DTYPE
"23/02/23","00:10",0.0,1.4,94.0,1020.6,321.8,1.7,2.1,319.9,0.00,0.6,7.5,"00:00:40",1
"23/02/23","00:20",0.0,1.3,94.1,1019.9,299.6,1.2,1.8,319.8,0.00,0.5,7.3,"00:11:46",1
"23/02/23","00:30",0.0,1.3,94.3,1020.4,274.1,1.0,1.4,273.3,0.00,0.5,7.3,"00:28:10",1
"23/02/23","00:40",0.0,1.5,94.5,1020.4,328.1,1.7,1.9,329.5,0.00,0.8,7.4,"00:37:28",1
"23/02/23","00:50",0.0,1.4,94.7,1020.6,319.6,1.8,2.1,320.3,0.00,0.7,7.3,"00:47:44",1
"23/02/23","01:00",0.0,1.5,94.9,1020.1,320.1,1.7,2.4,325.4,0.00,0.8,7.3,"00:53:30",1
"23/02/23","01:10",0.0,1.4,95.0,1020.1,295.1,1.3,1.8,313.3,0.00,0.7,7.2,"01:05:36",1
"23/02/23","01:20",0.0,1.4,95.3,1019.9,310.9,1.5,2.0,320.5,0.00,0.8,7.2,"01:10:44",1
"23/02/23","01:30",0.0,1.5,95.4,1019.9,278.1,0.8,1.4,310.9,0.00,0.9,7.3,"01:20:30",1
"23/02/23","01:40",0.0,1.5,95.5,1019.9,305.8,1.5,1.8,309.3,0.00,0.9,7.1,"01:35:54",1
"23/02/23","01:50",0.0,1.6,95.6,1019.4,316.0,1.3,2.0,333.5,0.00,1.0,7.2,"01:46:38",1
"23/02/23","02:00",0.0,1.7,95.7,1019.4,303.4,0.8,1.3,262.6,0.00,1.1,7.1,"01:56:42",1
"23/02/23","02:10",0.0,1.6,95.8,1019.2,298.8,1.6,2.1,311.6,0.00,1.0,7.1,"02:03:28",1
"23/02/23","02:20",0.0,1.6,96.0,1018.5,293.2,0.7,1.6,312.7,0.00,1.1,7.0,"02:11:28",1
"23/02/23","02:30",0.0,1.6,96.1,1019.0,319.1,2.0,2.6,320.8,0.00,1.1,7.0,"02:26:06",1
"23/02/23","02:40",0.0,1.7,96.2,1019.0,298.7,1.7,2.5,315.5,0.00,1.2,7.1,"02:39:08",1
"23/02/23","02:50",0.0,1.8,96.3,1018.7,307.9,1.2,1.7,310.8,0.00,1.3,7.0,"02:41:22",1
"23/02/23","03:00",0.0,1.9,96.3,1018.7,307.7,1.6,2.0,321.7,0.00,1.4,7.1,"02:57:14",1
"23/02/23","03:10",0.0,1.9,96.4,1018.5,315.4,1.5,1.8,328.1,0.00,1.4,6.8,"03:01:16",1
"23/02/23","03:20",0.0,2.0,96.5,1018.5,310.0,0.7,1.8,312.9,0.00,1.5,6.9,"03:10:08",1
"23/02/23","03:30",0.0,1.8,96.5,1018.5,304.3,1.6,2.1,320.7,0.00,1.3,6.9,"03:21:02",1
"23/02/23","03:40",0.0,1.8,96.6,1018.7,263.8,0.6,1.3,301.5,0.00,1.4,6.9,"03:30:54",1
"23/02/23","03:50",0.0,2.1,96.7,1018.5,295.1,0.5,1.1,319.6,0.00,1.7,6.8,"03:40:56",1
"23/02/23","04:00",0.0,2.3,96.6,1018.2,287.9,1.3,2.1,330.7,0.00,1.9,6.9,"03:58:36",1
"23/02/23","04:10",0.0,2.2,96.6,1018.2,319.7,1.7,2.6,316.1,0.00,1.8,6.8,"04:04:54",1
"23/02/23","04:20",0.0,2.3,96.7,1018.0,275.1,0.8,1.6,302.3,0.00,1.9,6.9,"04:10:08",1
"23/02/23","04:30",0.0,2.4,96.7,1018.0,297.4,1.6,2.0,325.1,0.00,2.0,6.9,"04:21:04",1
"23/02/23","04:40",0.0,2.5,96.6,1018.7,294.3,1.5,2.1,309.8,0.00,2.1,6.7,"04:32:00",1
"23/02/23","04:50",0.0,2.8,96.5,1018.5,228.2,1.0,2.0,253.4,0.00,2.3,6.8,"04:41:10",1
"23/02/23","05:00",0.0,2.9,96.4,1018.5,335.2,1.0,2.6,335.7,0.00,2.4,6.6,"04:59:10",1
"23/02/23","05:10",0.0,2.9,96.4,1018.2,275.2,1.1,2.5,318.4,0.00,2.4,6.7,"05:01:26",1
"23/02/23","05:20",0.0,2.9,96.4,1018.0,242.1,1.1,2.2,243.9,0.00,2.4,6.8,"05:17:22",1
"23/02/23","05:30",0.0,2.9,96.3,1018.7,225.7,0.6,1.3,251.7,0.00,2.4,6.8,"05:20:36",1
"23/02/23","05:40",0.0,3.1,96.2,1019.2,256.8,1.1,1.6,318.6,0.00,2.6,6.8,"05:39:52",1
"23/02/23","05:50",0.0,3.2,96.0,1019.2,330.9,1.2,2.1,336.5,0.00,2.7,6.6,"05:48:58",1
"23/02/23","06:00",0.0,3.2,96.0,1019.2,306.1,2.0,3.3,345.0,0.00,2.7,7.0,"05:52:50",1
"23/02/23","06:10",0.0,3.2,95.8,1019.4,307.0,2.0,3.1,260.3,0.00,2.6,6.7,"06:07:32",1
"23/02/23","06:20",0.0,3.3,95.6,1019.4,283.1,2.2,3.3,283.7,0.00,2.7,6.9,"06:12:10",1
"23/02/23","06:30",0.0,3.4,95.3,1019.4,310.1,2.7,4.3,322.0,0.00,2.8,6.6,"06:26:20",1
"23/02/23","06:40",0.0,3.7,94.9,1019.0,319.5,2.8,4.3,342.9,0.00,3.0,6.8,"06:34:04",1
"23/02/23","06:50",0.0,3.8,94.4,1019.2,334.2,1.8,3.4,315.0,0.00,3.0,6.6,"06:41:04",1
"23/02/23","07:00",0.0,3.8,94.1,1019.2,128.4,0.7,1.8,115.6,0.00,3.0,6.7,"06:51:42",1
"23/02/23","07:10",0.0,3.7,93.8,1019.2,243.4,1.0,1.8,217.5,0.00,2.8,6.7,"07:07:44",1
"23/02/23","07:20",0.0,3.7,93.5,1019.2,244.4,1.5,2.4,254.1,0.00,2.8,6.6,"07:19:34",1
"23/02/23","07:30",0.0,3.8,93.3,1019.7,256.6,1.7,2.4,250.9,0.00,2.9,6.7,"07:24:12",1
"23/02/23","07:40",0.0,3.8,93.0,1019.2,288.6,2.1,2.9,316.1,0.00,2.8,6.7,"07:38:44",1
"23/02/23","07:50",0.0,3.8,92.8,1019.4,306.4,1.7,2.5,317.7,0.00,2.8,6.6,"07:42:32",1
"23/02/23","08:00",0.0,3.9,92.7,1019.2,321.1,1.8,2.4,323.8,0.00,2.9,6.8,"07:56:24",1
"23/02/23","08:10",0.0,4.0,92.6,1019.4,308.0,2.0,2.5,314.9,0.00,3.0,6.8,"08:03:44",1
"23/02/23","08:20",0.0,4.1,92.6,1019.4,282.3,1.2,1.7,306.5,0.00,3.1,6.7,"08:12:10",1
"23/02/23","08:30",0.0,4.3,92.6,1019.2,293.4,1.3,2.4,326.0,0.03,3.2,6.8,"08:26:38",1
"23/02/23","08:40",0.0,4.5,92.4,1019.7,290.5,1.2,1.7,310.7,0.03,3.4,6.7,"08:30:08",1
"23/02/23","08:50",0.0,4.5,92.3,1019.4,312.5,2.1,2.8,315.9,0.02,3.4,6.8,"08:47:34",1
"23/02/23","09:00",0.0,4.6,92.1,1019.7,272.4,1.5,2.2,265.0,0.03,3.5,6.6,"08:51:14",1
"23/02/23","09:10",0.0,4.8,92.0,1019.4,285.3,1.2,2.0,313.2,0.04,3.7,6.8,"09:04:14",1
"23/02/23","09:20",0.0,4.9,91.8,1019.9,287.2,1.6,2.2,312.7,0.04,3.7,6.8,"09:18:36",1
"23/02/23","09:30",0.0,5.1,91.7,1019.7,287.7,1.3,2.0,271.1,0.06,3.9,6.7,"09:22:00",1
"23/02/23","09:40",0.0,5.3,91.2,1019.9,299.4,1.6,2.9,316.3,0.05,4.0,6.8,"09:34:56",1
"23/02/23","09:50",0.0,5.4,90.7,1019.9,310.9,1.7,2.6,326.0,0.05,4.0,6.7,"09:43:04",1
"23/02/23","10:00",0.0,5.5,90.1,1019.7,280.3,0.6,1.2,305.4,0.04,4.0,6.8,"09:59:28",1
"23/02/23","10:10",0.0,5.5,89.6,1019.7,237.2,0.6,1.0,289.4,0.03,4.0,6.9,"10:00:08",1
"23/02/23","10:20",0.0,5.5,89.1,1019.7,291.9,0.7,1.3,269.6,0.05,3.9,6.7,"10:19:52",1
"23/02/23","10:30",0.0,5.7,88.5,1019.9,259.9,0.8,1.4,296.5,0.05,4.0,6.9,"10:22:40",1
"23/02/23","10:40",0.0,5.8,88.0,1020.1,192.8,0.6,1.4,125.7,0.07,4.0,6.9,"10:34:08",1
"23/02/23","10:50",0.0,6.0,87.7,1019.4,172.2,0.8,1.8,110.8,0.11,4.2,7.1,"10:43:44",1
"23/02/23","11:00",0.0,6.1,86.8,1019.7,181.5,0.8,1.7,148.2,0.10,4.1,7.0,"10:54:40",1
"23/02/23","11:10",0.0,6.2,86.3,1019.7,15.9,0.5,1.3,97.4,0.09,4.1,7.0,"11:02:16",1
"23/02/23","11:20",0.0,6.3,85.6,1019.7,313.9,1.0,2.2,33.5,0.11,4.1,6.9,"11:18:00",1
"23/02/23","11:30",0.0,6.6,84.8,1019.4,191.6,0.7,1.6,168.2,0.15,4.3,6.9,"11:25:52",1
"23/02/23","11:40",0.0,7.6,83.7,1019.4,243.1,1.0,1.9,225.5,0.33,5.1,7.0,"11:34:24",1
"23/02/23","11:50",0.0,7.9,81.5,1019.7,273.8,1.0,2.2,271.7,0.28,5.0,7.0,"11:44:06",1
"23/02/23","12:00",0.0,7.5,79.9,1019.4,83.0,1.0,2.4,106.2,0.23,4.3,7.2,"11:53:08",1
"23/02/23","12:10",0.0,8.1,78.6,1019.2,324.6,1.0,1.9,334.0,0.22,4.6,7.2,"12:07:10",1
"23/02/23","12:20",0.0,8.7,76.9,1019.0,327.7,1.1,2.6,344.6,0.32,4.9,6.9,"12:18:14",1
"23/02/23","12:30",0.0,9.1,75.3,1018.7,65.4,1.1,2.0,337.8,0.45,5.0,7.0,"12:20:16",1
"23/02/23","12:40",0.0,10.0,73.4,1018.7,173.6,1.0,2.5,139.3,0.58,5.5,7.3,"12:36:16",1
"23/02/23","12:50",0.0,10.2,70.7,1018.0,264.7,1.1,2.8,188.2,0.50,5.2,7.2,"12:49:20",1
"23/02/23","13:00",0.0,10.3,71.4,1017.8,209.0,1.7,3.6,197.7,0.49,5.4,7.2,"12:53:20",1
"23/02/23","13:10",0.0,10.5,70.6,1018.0,211.1,1.3,3.3,125.2,0.47,5.4,7.5,"13:07:28",1
"23/02/23","13:20",0.0,10.3,69.7,1017.8,175.6,1.7,3.7,136.2,0.38,5.1,7.6,"13:15:28",1
"23/02/23","13:30",0.0,10.3,69.7,1017.1,143.4,2.2,3.6,141.5,0.47,5.1,7.7,"13:27:40",1
"23/02/23","13:40",0.0,10.9,69.8,1017.1,190.1,2.2,5.1,232.5,0.53,5.6,7.8,"13:33:54",1
"23/02/23","13:50",0.0,10.9,68.6,1016.8,191.1,2.2,3.9,143.4,0.40,5.4,8.0,"13:41:24",1
"23/02/23","14:00",0.0,10.8,68.4,1016.4,203.1,2.6,4.1,219.6,0.43,5.3,7.9,"13:56:20",1
"23/02/23","14:10",0.0,11.1,67.5,1016.4,183.0,1.8,4.0,117.6,0.50,5.4,8.2,"14:03:02",1
"23/02/23","14:20",0.0,11.4,65.7,1015.9,167.1,2.1,4.1,142.7,0.48,5.3,8.3,"14:18:52",1
"23/02/23","14:30",0.0,11.1,66.1,1015.9,167.3,2.0,4.1,128.8,0.32,5.1,8.1,"14:24:26",1
"23/02/23","14:40",0.0,10.8,66.8,1015.9,144.6,2.6,4.9,121.5,0.28,4.9,8.3,"14:36:02",1
"23/02/23","14:50",0.0,11.2,66.7,1015.6,91.3,1.1,3.1,142.8,0.25,5.3,8.4,"14:45:40",1
"23/02/23","15:00",0.0,11.9,65.3,1015.4,156.3,0.8,2.1,12.1,0.34,5.6,8.6,"14:55:20",1
"23/02/23","15:10",0.0,12.0,64.9,1015.6,137.8,1.7,3.1,107.7,0.38,5.6,8.7,"15:02:00",1
"23/02/23","15:20",0.0,11.9,64.7,1015.2,187.3,1.2,2.5,176.3,0.20,5.5,8.7,"15:11:44",1
"23/02/23","15:30",0.0,11.6,64.8,1015.4,287.8,1.1,1.9,310.6,0.10,5.2,8.8,"15:24:02",1
"23/02/23","15:40",0.0,11.3,65.9,1015.6,45.8,0.7,2.1,104.4,0.06,5.2,8.8,"15:33:56",1
"23/02/23","15:50",0.0,11.3,66.3,1015.2,293.3,0.6,1.6,270.8,0.03,5.3,9.0,"15:49:34",1
"23/02/23","16:00",0.0,11.1,67.4,1015.6,280.7,1.1,1.7,258.9,0.02,5.3,9.2,"15:55:08",1
"23/02/23","16:10",0.0,11.1,67.3,1015.4,12.9,0.7,2.0,351.6,0.01,5.3,9.0,"16:07:50",1
"23/02/23","16:20",0.0,11.1,68.0,1015.4,315.3,1.2,1.6,329.3,0.01,5.5,8.9,"16:13:06",1
"23/02/23","16:30",0.0,11.0,68.3,1015.2,336.7,1.6,2.5,337.5,0.03,5.4,9.0,"16:29:30",1
"23/02/23","16:40",0.0,11.0,68.8,1015.4,340.0,2.0,2.9,333.7,0.03,5.5,9.1,"16:36:30",1
"23/02/23","16:50",0.0,11.1,69.6,1015.2,326.0,2.0,2.5,332.4,0.03,5.8,9.1,"16:43:40",1
"23/02/23","17:00",0.0,11.1,69.2,1014.9,320.7,1.3,2.2,327.5,0.03,5.7,9.1,"16:53:18",1
"23/02/23","17:10",0.0,11.2,68.8,1015.2,322.1,1.7,2.4,323.4,0.03,5.7,9.2,"17:04:10",1
"23/02/23","17:20",0.0,11.0,69.2,1014.9,322.0,2.0,2.1,320.4,0.03,5.6,9.0,"17:18:32",1
"23/02/23","17:30",0.0,10.9,69.6,1015.2,311.4,2.1,2.8,325.9,0.03,5.6,9.1,"17:26:44",1
"23/02/23","17:40",0.0,11.3,69.8,1014.9,288.6,1.6,2.2,320.4,0.03,6.0,9.4,"17:30:48",1
"23/02/23","17:50",0.0,11.5,68.9,1014.9,265.3,1.2,1.7,243.4,0.02,6.0,9.2,"17:46:28",1
"23/02/23","18:00",0.0,10.9,70.0,1014.9,320.1,2.5,3.2,319.3,0.00,5.7,9.1,"17:56:04",1
"23/02/23","18:10",0.0,9.9,72.8,1014.9,298.2,2.0,2.9,325.4,0.00,5.3,9.4,"18:00:58",1
"23/02/23","18:20",0.0,9.3,74.8,1014.7,289.2,2.1,2.9,262.0,0.00,5.1,9.0,"18:10:32",1
"23/02/23","18:30",0.0,8.8,76.0,1015.2,297.3,1.7,2.6,265.2,0.00,4.8,9.1,"18:29:12",1
"23/02/23","18:40",0.0,8.6,77.4,1015.2,305.8,2.6,3.6,316.2,0.00,4.9,9.0,"18:31:12",1
"23/02/23","18:50",0.0,8.4,78.6,1015.2,288.5,1.8,2.6,262.2,0.00,4.9,9.2,"18:40:32",1
"23/02/23","19:00",0.0,8.3,79.4,1015.2,290.4,1.5,2.1,276.7,0.00,5.0,9.2,"18:55:12",1
"23/02/23","19:10",0.0,8.3,80.3,1014.7,318.6,2.3,3.4,323.2,0.00,5.2,9.1,"19:03:04",1
"23/02/23","19:20",0.0,8.2,81.3,1015.4,319.7,2.1,2.8,319.6,0.00,5.2,9.0,"19:14:32",1
"23/02/23","19:30",0.0,8.2,82.2,1015.2,316.6,1.3,2.0,314.2,0.00,5.4,9.0,"19:25:12",1
"23/02/23","19:40",0.0,8.1,82.9,1015.6,281.6,2.2,3.2,318.9,0.00,5.4,9.0,"19:37:44",1
"23/02/23","19:50",0.0,8.0,83.3,1015.9,307.8,2.2,3.6,337.7,0.00,5.4,9.1,"19:40:56",1
"23/02/23","20:00",0.0,7.8,83.7,1015.9,310.7,2.3,3.9,317.3,0.00,5.3,8.9,"19:59:20",1
"23/02/23","20:10",0.0,7.6,84.3,1015.6,312.1,2.5,3.5,321.6,0.00,5.2,8.8,"20:05:52",1
"23/02/23","20:20",0.0,7.6,84.7,1015.9,297.4,2.1,2.7,268.3,0.00,5.2,9.0,"20:16:40",1
"23/02/23","20:30",0.0,7.6,85.1,1015.6,305.4,2.2,3.1,318.9,0.00,5.3,9.0,"20:23:36",1
"23/02/23","20:40",0.0,7.5,85.3,1015.9,296.4,2.0,2.5,308.5,0.00,5.2,8.9,"20:38:40",1
"23/02/23","20:50",0.0,7.5,85.6,1015.9,300.6,2.0,2.7,321.0,0.00,5.3,8.8,"20:41:44",1
"23/02/23","21:00",0.0,7.5,85.8,1016.1,303.1,2.1,2.9,307.2,0.00,5.3,8.9,"20:58:00",1
"23/02/23","21:10",0.0,7.4,86.1,1016.4,308.0,2.3,3.1,314.4,0.00,5.3,8.8,"21:01:52",1
"23/02/23","21:20",0.0,7.4,86.3,1016.1,306.0,2.6,3.5,317.2,0.00,5.3,9.0,"21:17:20",1
"23/02/23","21:30",0.0,7.3,86.5,1016.1,303.6,2.1,2.9,308.0,0.00,5.2,8.8,"21:20:56",1
"23/02/23","21:40",0.0,7.2,86.7,1016.4,299.9,2.2,3.1,321.6,0.00,5.2,8.8,"21:32:00",1
"23/02/23","21:50",0.0,7.2,86.8,1016.1,309.1,2.2,3.3,318.4,0.00,5.2,8.8,"21:47:28",1
"23/02/23","22:00",0.0,7.1,87.1,1016.1,322.2,2.5,3.6,313.8,0.00,5.1,8.8,"21:55:28",1
"23/02/23","22:10",0.0,7.0,87.3,1016.4,296.9,2.0,3.1,308.8,0.00,5.1,8.9,"22:09:36",1
"23/02/23","22:20",0.0,6.9,87.6,1015.9,309.0,2.5,3.6,317.7,0.00,5.0,8.7,"22:14:00",1
"23/02/23","22:30",0.0,6.7,87.6,1015.6,299.4,2.5,3.3,322.6,0.00,4.8,8.6,"22:20:08",1
"23/02/23","22:40",0.0,6.5,88.0,1015.4,292.2,2.3,3.3,312.8,0.00,4.7,8.8,"22:39:12",1
"23/02/23","22:50",0.0,6.2,88.2,1015.2,314.8,2.7,4.0,324.8,0.00,4.4,8.5,"22:41:12",1
"23/02/23","23:00",0.0,5.8,88.6,1015.2,315.0,2.6,3.6,322.3,0.00,4.1,8.7,"22:53:20",1
"23/02/23","23:10",0.0,5.8,89.2,1015.4,288.6,2.0,2.8,308.5,0.00,4.2,8.4,"23:06:24",1
"23/02/23","23:20",0.0,5.7,89.5,1014.7,301.9,2.3,3.9,321.0,0.00,4.2,8.5,"23:19:58",1
"23/02/23","23:30",0.0,5.6,89.9,1014.7,308.5,2.7,4.0,303.4,0.00,4.1,8.7,"23:21:40",1
"23/02/23","23:40",0.0,5.5,90.3,1014.9,302.3,2.6,3.7,321.0,0.00,4.1,8.5,"23:32:18",1
"23/02/23","23:50",0.0,5.5,90.5,1014.7,292.1,2.2,3.1,302.0,0.00,4.1,8.5,"23:43:50",1
"23/02/23","24:00",0.0,5.4,90.8,1014.7,293.5,2.2,3.1,301.7,0.00,4.1,8.6,"23:59:10",1
